GFSFLT2_500_rhum_186.txt.gz
RH
24 26 27 28 28 28 25 24 25 24 22 22 22 21 20 16 16 14 9 8 9 10 10 11 11 11 11 11 11 12 12 12
26 25 27 30 27 28 29 27 26 25 22 21 21 21 19 15 9 9 8 9 10 11 12 13 14 14 14 14 15 14 14 12
25 25 27 31 30 27 27 29 28 26 23 24 23 19 10 8 9 11 12 14 16 18 19 20 21 21 20 20 18 17 16 15
25 25 27 29 31 29 26 26 27 26 25 20 15 10 9 10 12 15 18 21 21 21 21 22 23 20 18 19 19 19 17 15
23 25 25 29 32 32 25 21 24 25 19 10 10 10 12 15 16 21 23 21 21 22 23 24 26 26 21 18 17 17 16 15
18 25 27 29 32 36 36 27 13 16 12 10 11 12 14 16 19 25 23 23 23 24 25 27 28 30 29 25 19 19 19 18
16 21 26 29 32 35 36 37 24 12 12 11 10 12 16 17 19 26 27 26 26 26 27 30 33 33 31 28 23 18 17 18
14 17 24 26 29 34 35 35 34 28 18 11 9 10 16 18 19 23 26 27 26 28 30 35 37 37 35 30 26 22 22 21
15 15 18 22 28 32 37 38 34 32 30 21 13 11 16 18 21 22 23 25 26 30 34 39 42 40 35 31 28 28 28 27
18 20 24 26 31 36 36 41 36 32 32 20 10 11 14 17 19 22 25 28 32 39 43 43 40 36 35 33 34 34 32 30
22 24 31 30 32 39 38 40 40 33 33 32 22 18 18 20 24 28 31 37 45 46 45 37 35 39 41 41 41 37 35 32
30 32 38 44 48 45 41 39 38 34 35 37 31 25 22 26 32 38 44 50 51 48 36 36 43 46 44 40 39 40 38 35
46 48 47 45 45 40 32 33 35 33 41 38 29 24 28 36 43 50 54 58 48 40 42 48 52 52 49 44 42 37 35 34
58 57 52 45 45 37 37 43 49 55 44 30 27 32 44 48 52 64 63 46 42 52 58 55 59 56 52 49 46 45 41 39
67 59 52 46 44 45 52 56 53 40 30 30 38 46 52 61 71 60 54 55 59 64 61 61 58 49 46 44 39 38 42 44
66 56 48 43 46 55 57 48 37 33 37 44 51 58 66 82 75 60 56 61 64 60 61 63 54 47 42 39 40 42 44 43
69 58 56 58 53 49 44 43 46 46 51 59 64 74 83 88 73 63 63 63 62 60 62 52 51 51 48 49 47 47 48 38
76 72 69 69 65 63 62 64 63 69 77 81 91 86 98 88 72 64 65 64 70 73 61 55 62 56 52 50 54 52 45 42
74 82 79 76 78 78 80 83 86 92 91 76 82 98 93 90 74 69 69 78 79 68 58 64 63 58 55 58 56 56 42 21
68 74 84 88 95 98 96 92 83 89 68 82 99 97 92 91 82 77 83 75 70 57 60 67 64 60 65 63 57 24 12 12

GFSFLT2_500_rhum_192.txt.gz
RH
21 21 22 25 26 25 30 29 27 26 24 22 20 20 20 18 19 16 10 8 8 7 9 11 12 13 14 14 15 16 16 15
24 22 24 27 27 24 26 30 28 26 26 25 22 22 22 20 17 16 13 7 8 10 12 14 15 16 18 18 20 21 22 23
28 25 24 25 28 28 25 25 29 26 26 28 26 23 20 19 14 8 7 8 11 13 16 18 18 20 21 22 21 22 23 24
34 28 24 24 26 27 27 25 26 30 25 24 26 24 22 20 11 8 9 11 13 15 19 20 21 22 21 20 20 22 22 23
28 40 33 20 20 21 25 27 27 28 32 27 19 20 24 20 9 10 11 12 14 16 19 23 24 24 23 20 20 23 26 30
55 40 34 27 19 17 18 25 29 28 28 33 32 22 14 17 12 10 11 13 15 16 18 21 25 24 20 18 22 27 31 30
60 55 46 34 22 19 15 17 25 30 30 29 33 33 31 16 14 13 12 12 14 16 18 20 20 20 18 21 27 32 32 30
62 57 50 41 26 23 20 15 16 24 29 30 30 33 33 34 31 25 23 16 13 14 16 17 17 20 21 27 36 41 40 39
66 50 51 37 31 27 23 22 15 16 22 28 31 34 34 35 35 35 35 20 14 13 15 19 21 21 29 42 49 48 45 39
60 44 48 53 35 27 31 29 24 19 19 24 30 36 37 36 37 36 34 34 26 24 25 24 23 33 44 52 55 50 41 36
58 78 46 49 50 34 41 40 30 27 28 28 31 35 41 38 38 37 35 35 37 34 30 24 31 46 56 62 62 55 44 39
88 93 77 50 44 38 30 34 37 34 35 35 37 45 50 46 40 39 36 35 36 36 29 30 49 57 72 72 65 55 44 37
75 79 68 64 52 45 33 42 49 47 46 46 52 58 55 43 38 36 36 43 45 35 30 43 57 76 79 73 58 45 37 35
43 40 43 46 42 41 38 35 53 60 64 57 56 56 51 42 50 52 53 50 38 33 46 59 80 83 76 62 50 40 34 38
70 63 69 66 64 75 70 60 72 69 67 60 58 55 52 55 53 53 49 41 37 48 60 84 80 84 76 64 52 41 34 27
76 67 59 70 91 86 90 94 93 84 78 73 63 58 59 57 55 51 45 47 51 60 81 77 75 92 61 62 46 37 28 22
70 72 73 94 84 95 100 96 91 82 79 79 71 61 56 52 52 54 58 64 72 79 86 80 91 92 66 56 42 37 31 26
65 76 100 91 90 98 98 87 94 91 84 80 70 69 71 71 74 76 82 83 87 89 89 97 100 76 69 56 44 41 42 32
58 62 79 96 96 99 98 98 98 96 91 85 85 86 82 85 88 88 86 92 96 97 100 98 80 76 63 52 44 48 36 36
82 76 67 69 84 96 98 99 100 100 96 89 88 91 89 87 92 96 100 100 99 100 98 86 80 72 69 61 57 43 36 40

GFSFLT2_500_rhum_198.txt.gz
RH
25 36 42 19 19 16 14 15 16 18 20 19 20 21 23 19 18 17 15 15 15 11 9 8 7 9 12 14 14 15 17 17
23 37 41 26 22 19 15 14 15 16 20 21 19 17 20 23 21 20 19 17 15 15 12 7 9 10 14 14 15 16 18 18
29 37 39 38 27 23 18 15 14 16 17 20 22 19 16 17 23 23 21 20 19 14 8 7 10 12 15 18 18 19 18 15
38 43 41 43 29 26 22 16 14 15 16 18 22 23 20 17 16 21 24 21 20 13 8 8 11 13 14 16 18 19 19 18
50 52 45 39 36 30 22 25 19 15 15 15 19 22 23 22 18 16 14 17 20 15 9 9 11 13 14 15 15 18 20 16
54 48 52 43 36 31 34 31 28 20 16 15 16 18 23 24 23 20 18 18 11 14 12 10 11 12 13 13 13 15 17 12
57 51 57 56 51 52 48 40 43 34 22 19 15 15 19 22 25 24 24 22 20 16 12 11 12 12 11 10 8 8 10 10
79 52 70 70 66 61 53 58 52 40 38 24 22 20 16 18 21 23 25 27 29 27 24 23 23 23 22 20 15 12 9 18
67 51 63 60 74 75 45 60 62 53 37 37 32 27 24 22 17 18 22 26 28 32 33 32 32 31 28 27 26 22 22 23
45 54 70 77 83 80 71 63 63 55 42 42 40 46 34 34 28 23 20 21 25 30 34 38 39 38 36 33 32 31 30 30
36 44 69 68 79 79 88 78 63 60 68 78 64 49 43 37 37 33 31 32 32 32 35 41 43 42 40 39 35 34 34 36
28 31 29 39 57 79 76 59 79 76 92 100 86 62 54 42 35 46 47 45 43 42 43 49 51 48 36 34 37 41 40 36
27 25 27 35 62 68 70 90 94 87 99 100 92 76 62 42 47 67 64 60 56 55 56 63 65 46 44 50 47 44 39 35
33 43 37 50 85 81 85 92 90 94 97 94 84 72 58 51 78 77 68 72 68 65 60 56 49 49 54 54 50 44 41 48
50 51 52 42 53 81 82 77 63 83 88 92 82 82 73 78 79 82 91 87 76 70 67 64 59 60 60 55 48 47 59 73
61 64 64 65 66 52 56 59 64 87 78 72 73 76 82 93 96 96 95 90 80 72 71 66 60 57 55 56 58 63 73 71
66 68 68 68 72 74 69 77 64 68 69 77 89 94 100 100 92 90 86 92 74 70 70 68 65 72 69 72 78 84 86 79
54 60 66 72 85 94 94 79 80 79 91 96 96 97 98 100 94 94 97 88 81 72 72 75 72 73 84 91 89 89 90 89
63 68 76 82 87 71 68 68 71 74 79 94 96 97 96 95 93 98 97 95 92 89 86 87 83 83 87 87 87 95 96 100
96 93 77 80 75 83 81 73 82 79 80 88 96 95 97 98 87 94 98 93 98 97 90 86 89 96 97 96 99 98 98 96

GFSFLT2_500_rhum_201.txt.gz
RH
24 29 28 23 36 32 19 19 14 13 13 12 19 19 20 22 18 19 18 15 13 12 10 9 7 6 7 9 14 16 15 16
26 32 35 23 32 39 26 23 17 13 13 14 12 19 19 17 19 21 20 19 18 13 12 9 8 6 8 10 17 16 16 17
26 29 35 28 36 41 38 27 21 17 14 14 15 15 17 22 17 15 19 21 20 18 15 12 10 6 8 10 15 17 18 19
47 23 25 32 39 41 39 29 24 20 16 14 15 16 16 18 24 22 16 15 18 20 19 14 8 7 9 11 14 14 16 16
45 38 28 40 46 46 38 33 29 24 29 20 15 15 16 19 18 22 26 23 18 14 13 14 11 8 9 11 13 14 14 14
55 49 33 50 54 44 43 37 32 34 32 28 21 17 16 16 19 21 22 23 26 25 20 12 11 9 8 10 11 11 10 9
25 45 47 65 66 46 54 42 49 47 41 44 41 34 21 17 15 16 20 24 27 27 28 27 25 18 12 11 13 14 12 12
21 48 71 81 90 63 67 61 58 52 48 53 49 40 36 26 23 22 18 17 20 21 27 30 31 32 29 20 28 26 24 20
22 44 62 46 89 59 68 72 71 70 50 50 58 52 41 40 36 30 25 24 20 18 20 21 24 30 33 34 29 30 33 33
25 46 86 81 30 36 62 81 87 82 77 55 61 66 48 49 42 35 36 39 40 32 26 25 24 24 28 37 38 34 36 37
27 28 45 43 51 69 71 86 83 89 86 71 77 70 70 77 66 65 42 39 35 36 38 37 35 35 34 35 41 46 39 30
23 24 26 28 41 47 64 84 91 78 89 77 93 85 85 90 88 67 58 53 38 48 52 48 47 48 50 50 56 54 42 38
24 22 24 26 28 38 40 55 62 79 96 96 92 98 88 88 88 90 66 56 46 59 58 60 64 63 59 54 49 51 48 49
42 34 25 28 36 49 49 43 57 82 100 99 93 91 93 94 100 86 66 61 61 72 69 80 76 69 64 58 53 52 54 55
41 45 45 46 46 55 55 47 38 57 74 99 96 97 95 93 100 83 73 71 80 89 92 98 90 80 73 70 66 59 55 53
42 46 60 64 56 60 67 69 53 53 63 97 97 96 91 96 100 85 74 82 96 96 95 97 96 88 70 77 70 70 81 82
58 77 91 80 81 73 73 76 78 65 66 84 96 96 96 97 99 92 87 93 97 95 90 96 97 90 89 92 91 88 90 89
71 72 98 98 97 90 76 78 87 93 91 90 98 98 97 97 98 98 95 94 96 95 92 94 98 96 94 93 93 94 92 90
77 86 100 97 98 96 90 82 87 94 97 100 98 99 100 98 98 98 97 98 98 97 91 83 99 100 95 96 95 93 95 95
69 84 83 97 96 82 72 80 88 96 95 94 95 99 100 97 94 95 96 99 98 98 96 95 89 79 98 100 94 97 98 97

GFSFLT2_500_rhum_204.txt.gz
RH
17 22 23 30 39 34 32 39 23 21 17 15 14 16 19 20 20 17 17 19 18 15 12 10 8 9 6 7 9 10 14 15
17 24 23 28 36 40 34 41 43 26 22 15 15 15 15 18 22 22 20 19 20 20 15 12 8 8 7 7 10 12 14 16
15 16 17 22 32 37 40 36 48 42 26 20 17 17 16 16 17 21 23 23 20 19 18 16 12 13 12 8 9 11 14 16
13 14 19 26 40 43 42 45 46 48 30 26 19 16 17 19 18 17 20 21 22 22 21 17 15 16 12 8 8 10 12 13
12 27 32 38 35 43 48 64 54 54 40 30 30 33 20 16 18 20 21 20 22 23 24 21 15 14 14 10 8 9 11 12
18 26 30 58 66 52 59 67 56 57 47 32 38 35 39 29 20 16 18 23 25 22 21 22 22 27 24 19 14 10 10 10
21 18 26 54 65 55 68 76 73 68 48 40 51 50 53 48 42 27 20 18 16 19 22 23 20 25 29 30 28 22 17 13
31 24 21 28 51 45 73 93 94 80 74 57 62 55 54 62 59 44 35 30 26 24 21 18 18 21 23 28 31 33 32 30
30 30 27 25 22 56 60 98 96 88 76 82 71 70 64 69 75 59 44 37 36 36 34 32 28 24 21 20 20 26 30 33
32 32 30 28 26 27 46 65 87 99 78 93 90 83 82 83 86 85 67 70 69 59 40 36 39 39 33 31 29 33 33 32
43 35 34 31 29 30 35 53 97 96 87 99 92 93 90 91 82 93 95 83 85 82 62 49 36 38 40 42 43 45 45 46
48 50 46 33 29 29 31 38 93 88 94 97 94 98 98 96 91 95 100 90 92 92 75 65 52 41 52 55 58 58 58 55
36 40 40 34 28 24 27 30 35 50 63 92 96 83 100 100 97 93 100 88 87 89 79 61 56 51 65 74 67 68 67 62
35 35 39 37 30 25 25 28 29 50 60 76 92 97 96 97 86 92 98 93 90 88 92 70 78 72 84 78 78 90 91 82
42 47 37 38 42 43 41 39 34 41 56 73 87 92 96 98 94 97 96 95 96 90 97 82 83 82 85 87 96 96 83 78
43 44 54 51 56 51 55 54 56 60 78 78 63 74 95 99 97 96 97 96 97 96 93 84 81 92 94 96 94 98 84 83
68 74 74 78 79 91 86 85 83 72 66 78 90 92 87 94 97 98 97 97 100 96 93 89 87 87 85 87 95 96 97 97
36 67 97 96 99 97 92 97 95 89 91 83 88 90 94 93 98 97 97 98 100 97 96 94 92 94 86 86 87 89 99 97
41 54 75 96 98 96 94 86 96 96 98 94 89 98 97 96 98 99 98 98 97 94 93 100 96 92 95 95 98 94 95 87
51 60 62 75 96 100 100 100 96 96 97 95 94 96 97 94 88 95 99 99 98 98 99 98 99 100 95 98 96 95 98 97

GFSFLT2_500_rhum_210.txt.gz
RH
20 13 12 13 14 16 14 25 33 50 66 59 54 33 25 20 16 17 21 19 16 16 16 13 12 11 10 9 7 6 6 7
18 15 12 13 12 13 16 25 37 52 74 80 67 55 32 24 20 17 16 18 21 18 19 17 14 12 12 12 11 9 7 6
24 24 24 16 15 16 22 31 40 58 80 82 81 61 49 29 25 20 18 17 18 24 22 21 21 19 17 16 13 10 10 8
31 40 36 36 23 15 21 30 39 72 88 78 84 78 63 38 29 23 21 19 19 19 20 23 25 24 24 23 21 17 14 12
29 34 44 31 20 19 17 20 44 82 77 94 80 91 76 62 36 42 35 22 18 18 20 22 20 20 20 20 20 19 18 17
45 40 38 37 30 28 26 22 32 60 86 97 72 95 90 79 47 44 43 42 42 38 25 20 23 24 23 23 22 21 20 18
48 49 42 40 32 33 36 33 26 67 64 65 92 92 96 89 79 49 61 64 64 57 50 33 22 20 20 22 23 23 24 23
47 48 54 44 39 33 38 38 36 45 84 95 81 88 98 99 92 80 57 71 68 68 65 58 44 39 37 33 30 29 27 24
49 56 50 49 43 41 40 36 34 31 46 94 97 97 91 98 100 99 92 72 72 81 81 65 66 51 50 52 48 40 34 33
30 34 46 50 46 41 43 40 37 33 37 59 88 95 85 75 95 99 93 92 88 84 92 92 78 76 75 69 62 56 50 47
36 34 34 51 55 57 56 52 50 45 46 47 69 96 94 57 96 97 93 86 89 92 92 97 97 80 71 76 68 62 60 65
34 42 48 42 52 62 60 64 63 63 65 66 63 65 93 77 51 76 95 78 96 92 100 94 98 96 90 86 82 72 69 67
11 10 23 25 38 52 74 71 67 57 58 60 64 63 58 90 100 66 72 98 97 96 95 92 94 100 94 88 72 80 76 72
10 11 10 10 17 20 40 51 54 64 62 63 61 44 41 53 41 40 87 97 84 65 97 99 91 99 98 92 65 73 78 83
12 13 13 13 15 20 16 25 36 65 80 76 70 63 63 65 56 41 49 51 56 64 91 97 97 96 91 70 65 64 86 89
14 12 13 13 12 11 14 20 16 39 69 80 83 66 76 87 81 60 50 47 46 97 82 98 95 92 80 78 64 54 82 89
16 15 14 13 12 11 12 17 18 30 49 65 87 98 81 100 98 89 69 70 82 89 75 89 93 90 98 95 79 68 78 80
15 15 15 13 11 12 13 13 42 44 35 52 66 82 85 98 95 98 95 76 72 76 77 81 98 84 96 96 95 92 100 95
18 16 15 11 6 10 11 12 27 60 68 53 66 65 64 72 96 92 97 89 94 83 82 85 79 88 94 100 98 95 88 82
4 10 12 9 7 11 16 18 18 46 97 84 51 79 72 85 86 95 98 94 98 99 100 96 96 94 92 96 90 81 95 85